Pittsburg, KS

7:30 PM CDT on August 25, 2016 (GMT -0500)
Atkinson Municipal

Weather History for KPTS - January, 2014

Change the Weather History Date:

Sunday, January 26, 2014

  Actual Average (KJLN) Record (KJLN)
Temperature  
Mean Temperature 46 °F 36 °F  
Max Temperature 60 °F 46 °F 67 °F (1953)
Min Temperature 32 °F 25 °F 3 °F (1963)
Degree Days  
Heating Degree Days 19 30  
Month to date heating degree days 780  
Since 1 July heating degree days 2397  
Cooling Degree Days 0 0  
Month to date cooling degree days 0  
Year to date cooling degree days 0  
Moisture  
Dew Point 27 °F    
Average Humidity 54    
Maximum Humidity 78    
Minimum Humidity 27    
Precipitation  
Precipitation 0.00 in 0.06 in 1.33 in (1967)
Month to date precipitation 1.70  
Year to date precipitation 1.70  
Sea Level Pressure  
Sea Level Pressure 29.78 in    
Wind  
Wind Speed 10 mph (West)    
Max Wind Speed 29 mph    
Max Gust Speed 41 mph    
Visibility 10 miles    
Events      
T = Trace of Precipitation, MM = Missing Value Source: NWS Daily Summary

Daily Weather History Graph

Daily Weather History Graph

Search for Another Location

Airport or City:

Trip Planner

Search our weather history database for the weather conditions in past years. The results will help you decide how hot, cold, wet, or windy it might be!

Date:

Astronomy

Jan. 26, 2014 Rise Set
Actual Time 7:26 AM CST 5:36 PM CST
Civil Twilight 6:58 AM CST 6:04 PM CST
Nautical Twilight 6:27 AM CST 6:36 PM CST
Astronomical Twilight 5:56 AM CST 7:07 PM CST
Moon 3:04 AM CST 1:27 PM CST
Length of Visible Light 11h 05m
Length of Day
10h 09m
Waning Crescent, 23% of the Moon is Illuminated
Jan 26
Waning Crescent
Jan 30
New
Feb 6
First Quarter
Feb 14
Full
Feb 22
Last Quarter

Hourly Weather History & Observations

Time (CST) Temp. Windchill Dew Point Humidity Pressure Visibility Wind Dir Wind Speed Gust Speed Precip Events Conditions
12:15 AM 35.8 °F 28.3 °F 29.5 °F 78% 29.85 in 10.0 mi SSW 10.4 mph - N/A   Clear
12:35 AM 37.4 °F 29.8 °F 30.7 °F 77% 29.83 in 10.0 mi SSW 11.5 mph - N/A   Clear
12:55 AM 37.6 °F 31.0 °F 30.4 °F 75% 29.82 in 10.0 mi SSW 9.2 mph - N/A   Clear
1:15 AM 36.9 °F 30.7 °F 30.0 °F 76% 29.80 in 10.0 mi SSW 8.1 mph - N/A   Clear
1:35 AM 36.1 °F 29.3 °F 29.5 °F 77% 29.79 in 10.0 mi SSW 9.2 mph - N/A   Clear
1:55 AM 37.2 °F 29.1 °F 30.4 °F 76% 29.79 in 10.0 mi SSW 12.7 mph - N/A   Clear
2:15 AM 37.9 °F 30.9 °F 30.6 °F 75% 29.79 in 10.0 mi SW 10.4 mph - N/A   Clear
2:35 AM 37.9 °F 30.9 °F 30.9 °F 76% 29.78 in 10.0 mi SSW 10.4 mph - N/A   Clear
2:55 AM 38.5 °F 31.1 °F 30.9 °F 74% 29.78 in 10.0 mi SW 11.5 mph 17.3 mph N/A   Clear
3:15 AM 40.3 °F 32.2 °F 31.5 °F 71% 29.77 in 10.0 mi SW 15.0 mph - N/A   Clear
3:35 AM 40.5 °F 33.6 °F 31.3 °F 70% 29.77 in 10.0 mi SW 11.5 mph - N/A   Clear
3:55 AM 39.9 °F 33.4 °F 30.9 °F 70% 29.77 in 10.0 mi SW 10.4 mph - N/A   Clear
4:15 AM 39.6 °F 32.5 °F 31.1 °F 72% 29.76 in 10.0 mi SW 11.5 mph 19.6 mph N/A   Clear
4:35 AM 40.5 °F 33.2 °F 31.5 °F 70% 29.75 in 10.0 mi SW 12.7 mph - N/A   Clear
4:55 AM 40.5 °F 32.8 °F 31.6 °F 71% 29.75 in 10.0 mi SW 13.8 mph - N/A   Clear
5:15 AM 40.1 °F 32.4 °F 31.5 °F 71% 29.75 in 10.0 mi SW 13.8 mph - N/A   Clear
5:35 AM 39.2 °F 31.6 °F 30.9 °F 72% 29.75 in 10.0 mi WSW 12.7 mph - N/A   Clear
5:55 AM 38.3 °F 31.4 °F 30.0 °F 72% 29.75 in 10.0 mi SW 10.4 mph - N/A   Clear
6:15 AM 37.9 °F 30.9 °F 30.0 °F 73% 29.75 in 10.0 mi SW 10.4 mph - N/A   Clear
6:35 AM 37.9 °F 31.5 °F 30.2 °F 74% 29.75 in 10.0 mi SW 9.2 mph - N/A   Clear
6:55 AM 37.9 °F 31.5 °F 30.0 °F 73% 29.74 in 10.0 mi SW 9.2 mph - N/A   Clear
7:15 AM 37.9 °F 32.7 °F 30.7 °F 75% 29.75 in 10.0 mi WSW 6.9 mph - N/A   Clear
7:35 AM 37.4 °F 31.4 °F 30.7 °F 77% 29.74 in 10.0 mi SW 8.1 mph - N/A   Clear
7:55 AM 37.0 °F 31.0 °F 30.7 °F 78% 29.74 in 10.0 mi WSW 8.1 mph - N/A   Clear
8:15 AM 37.9 °F 33.5 °F 31.1 °F 76% 29.74 in 10.0 mi WSW 5.8 mph - N/A   Clear
8:35 AM 38.3 °F 35.9 °F 30.2 °F 73% 29.76 in 10.0 mi WNW 3.5 mph - N/A   Clear
8:55 AM 39.9 °F 35.8 °F 31.1 °F 71% 29.75 in 10.0 mi WSW 5.8 mph - N/A   Clear
9:15 AM 41.0 °F 38.0 °F 30.7 °F 67% 29.75 in 10.0 mi WSW 4.6 mph - N/A   Clear
9:35 AM 42.6 °F 37.8 °F 31.1 °F 64% 29.74 in 10.0 mi WSW 8.1 mph - N/A   Clear
9:55 AM 44.4 °F 39.5 °F 31.5 °F 60% 29.75 in 10.0 mi WSW 9.2 mph - N/A   Clear
10:15 AM 47.7 °F - 32.5 °F 56% 29.75 in 10.0 mi West 8.1 mph - N/A   Clear
10:35 AM 49.6 °F - 33.1 °F 53% 29.75 in 10.0 mi West 5.8 mph - N/A   Clear
10:55 AM 50.9 °F - 32.5 °F 49% 29.76 in 10.0 mi NW 6.9 mph - N/A   Clear
11:15 AM 52.0 °F - 32.4 °F 47% 29.75 in 10.0 mi West 5.8 mph - N/A   Clear
11:35 AM 53.8 °F - 32.4 °F 44% 29.75 in 10.0 mi WNW 6.9 mph - N/A   Clear
11:55 AM 55.8 °F - 32.7 °F 42% 29.74 in 10.0 mi NW 6.9 mph - N/A   Clear
12:15 PM 55.8 °F - 32.2 °F 41% 29.72 in 10.0 mi NNW 4.6 mph - N/A   Clear
12:35 PM 56.1 °F - 31.5 °F 39% 29.72 in 10.0 mi West 6.9 mph - N/A   Clear
12:55 PM 57.2 °F - 31.8 °F 38% 29.70 in 10.0 mi WNW 5.8 mph - N/A   Clear
1:15 PM 58.8 °F - 31.3 °F 35% 29.69 in 10.0 mi NW 4.6 mph - N/A   Clear
1:35 PM 60.4 °F - 31.5 °F 34% 29.69 in 10.0 mi WNW 4.6 mph - N/A   Clear
1:55 PM 60.8 °F - 30.7 °F 32% 29.68 in 10.0 mi NW 8.1 mph - N/A   Clear
2:15 PM 60.8 °F - 30.4 °F 32% 29.68 in 10.0 mi NW 9.2 mph - N/A   Clear
2:35 PM 60.8 °F - 29.8 °F 31% 29.68 in 10.0 mi NW 10.4 mph - N/A   Clear
2:55 PM 60.8 °F - 29.5 °F 31% 29.68 in 10.0 mi NNW 9.2 mph 17.3 mph N/A   Clear
3:15 PM 60.8 °F - 29.3 °F 30% 29.68 in 10.0 mi NW 6.9 mph - N/A   Clear
3:35 PM 60.8 °F - 28.4 °F 29% 29.68 in 10.0 mi NW 9.2 mph - N/A   Clear
3:55 PM 60.8 °F - 27.7 °F 28% 29.69 in 10.0 mi NNW 8.1 mph - N/A   Clear
4:15 PM 60.3 °F - 25.9 °F 27% 29.69 in 10.0 mi NNW 10.4 mph 17.3 mph N/A   Clear
4:35 PM 58.5 °F - 25.2 °F 28% 29.70 in 10.0 mi NNW 9.2 mph - N/A   Clear
4:55 PM 58.3 °F - 26.1 °F 29% 29.70 in 10.0 mi NNW 6.9 mph - N/A   Clear
5:15 PM 56.5 °F - 25.9 °F 31% 29.70 in 10.0 mi NNW 4.6 mph - N/A   Clear
5:35 PM 54.7 °F - 26.2 °F 33% 29.70 in 10.0 mi NW 3.5 mph - N/A   Clear
5:55 PM 51.6 °F - 25.9 °F 37% 29.71 in 10.0 mi Calm Calm - N/A   Clear
6:15 PM 48.0 °F - 25.2 °F 41% 29.72 in 10.0 mi Calm Calm - N/A   Clear
6:35 PM 42.4 °F - 24.3 °F 49% 29.74 in 10.0 mi Calm Calm - N/A   Clear
6:55 PM 40.5 °F - 25.0 °F 54% 29.75 in 10.0 mi Calm Calm - N/A   Clear
7:15 PM 39.0 °F 36.8 °F 24.8 °F 57% 29.77 in 10.0 mi NW 3.5 mph - N/A   Clear
7:35 PM 41.2 °F - 25.2 °F 53% 29.78 in 10.0 mi Calm Calm - N/A   Clear
7:55 PM 37.6 °F - 24.4 °F 59% 29.80 in 10.0 mi Calm Calm - N/A   Clear
8:15 PM 36.0 °F - 24.6 °F 63% 29.80 in 10.0 mi Calm Calm - N/A   Clear
8:35 PM 36.5 °F - 25.3 °F 64% 29.82 in 10.0 mi Calm Calm - N/A   Scattered Clouds
8:55 PM 40.6 °F 30.7 °F 26.1 °F 56% 29.90 in 10.0 mi North 23.0 mph 38.0 mph N/A   Scattered Clouds
9:15 PM 42.1 °F 31.5 °F 24.8 °F 50% 29.94 in 10.0 mi North 28.8 mph 40.3 mph N/A   Clear
9:35 PM 39.9 °F 29.5 °F 25.3 °F 56% 29.96 in 10.0 mi North 24.2 mph 41.4 mph N/A   Clear
9:55 PM 38.1 °F 27.1 °F 21.6 °F 51% 29.99 in 10.0 mi North 24.2 mph 40.3 mph N/A   Clear
10:15 PM 36.9 °F 26.2 °F 15.3 °F 41% 30.01 in 10.0 mi North 20.7 mph 31.1 mph N/A   Clear
10:35 PM 35.6 °F 24.8 °F 8.4 °F 32% 30.03 in 10.0 mi North 19.6 mph 29.9 mph N/A   Clear
10:55 PM 35.6 °F 26.2 °F 7.2 °F 31% 30.04 in 10.0 mi North 15.0 mph 26.5 mph N/A   Scattered Clouds
11:15 PM 35.1 °F 24.8 °F 6.6 °F 31% 30.07 in 10.0 mi North 17.3 mph 35.7 mph N/A   Mostly Cloudy
11:35 PM 32.9 °F 22.0 °F 4.1 °F 30% 30.09 in 10.0 mi North 17.3 mph 27.6 mph N/A   Overcast
11:55 PM 32.5 °F 19.9 °F 4.1 °F 30% 30.10 in 10.0 mi North 23.0 mph 31.1 mph N/A   Overcast